Theta_e
310 310 318 326 331 335 335 339 334 337 335 326 325 326 328 329 337 332 332 335 333 325 321 320 319 322 321 319 319 319 321 321 321 321 321 320 319 321 321 323 324 323 327 335 335 335 334 332 331
310 318 328 333 336 343 344 340 340 336 335 331 324 324 325 327 329 333 338 335 332 326 318 322 318 321 323 320 320 320 322 323 324 324 325 327 325 327 332 333 335 335 334 334 337 337 336 335 333
318 325 336 341 345 347 343 338 337 337 332 327 328 323 325 329 331 334 336 335 330 326 323 318 317 321 324 322 321 321 322 324 325 326 329 331 328 325 327 333 336 336 335 334 337 338 338 337 336
325 332 335 341 345 344 341 339 339 336 328 324 324 327 326 326 330 331 335 335 330 326 329 324 319 320 324 322 322 322 322 324 326 328 332 334 334 334 336 337 334 337 336 335 336 335 335 337 337
331 337 334 341 341 340 339 339 336 334 329 324 324 327 328 326 327 328 335 334 331 327 329 329 320 320 323 322 322 322 323 325 327 331 335 337 336 337 336 337 337 336 336 336 336 334 333 333 334
332 334 336 332 332 333 333 332 331 330 327 327 325 326 328 325 328 330 334 335 333 330 326 332 324 321 323 322 323 323 324 326 328 329 334 335 337 338 337 336 337 336 336 336 336 333 332 332 332
332 335 330 331 329 329 330 330 330 329 328 329 325 327 328 327 327 331 333 336 334 333 328 333 335 322 323 322 323 324 325 325 325 326 332 333 332 330 329 330 332 333 334 335 335 333 331 332 333
329 332 331 331 329 328 327 327 325 327 329 325 325 328 329 328 326 330 333 335 334 336 336 336 334 335 335 337 324 324 326 324 323 329 329 327 325 326 326 327 328 327 331 332 332 332 332 332 330
326 331 330 329 328 328 327 328 326 326 328 326 325 327 327 325 326 334 335 335 334 335 337 336 337 335 338 339 339 327 327 323 325 327 326 327 330 330 328 325 324 326 329 330 331 331 331 331 331
330 332 330 329 328 328 327 328 329 329 329 329 329 327 323 324 327 331 335 334 334 334 334 333 328 336 333 338 339 339 338 335 335 333 330 332 332 329 328 325 324 326 330 332 332 332 331 332 328
328 331 329 329 328 327 328 329 328 328 329 329 329 329 329 327 326 328 332 332 332 334 334 333 330 329 334 339 339 339 336 335 334 327 327 329 329 329 329 328 329 329 327 327 328 328 327 329 331
328 328 329 328 328 328 328 328 328 329 330 329 329 328 327 327 327 328 330 332 332 332 333 332 330 330 334 338 335 335 333 331 330 330 327 331 331 330 330 328 329 329 328 328 329 328 328 329 330
329 328 329 329 329 328 328 329 329 329 328 327 328 328 328 327 327 326 327 330 331 332 332 335 332 330 332 332 332 329 328 327 328 329 329 329 331 332 331 330 330 330 327 329 329 326 328 329 330
325 327 328 328 328 328 328 328 328 328 329 328 329 329 328 327 326 325 325 326 328 329 329 330 331 333 335 332 328 325 325 324 327 328 329 328 330 331 331 330 330 328 326 326 328 327 327 327 329
326 328 328 328 327 328 325 324 325 326 326 327 327 328 328 327 325 325 326 325 326 326 326 326 329 333 335 330 327 325 323 327 328 329 329 329 329 330 331 331 331 328 328 324 325 327 327 327 327
319 320 321 320 321 321 321 324 323 324 326 327 327 327 325 326 327 325 325 325 325 325 322 322 327 333 333 330 327 324 326 328 329 329 329 330 330 331 331 331 332 329 328 325 325 326 327 327 327
319 320 320 320 321 321 324 324 323 323 324 325 325 325 325 326 327 326 325 325 325 321 322 320 324 330 332 328 325 325 328 329 329 329 331 330 331 331 330 331 330 329 328 325 325 325 326 326 327
320 319 319 320 320 319 320 322 322 323 323 324 325 326 326 325 327 326 325 324 323 320 319 320 326 331 328 326 325 328 329 329 329 330 330 331 332 330 330 330 329 327 327 326 327 327 326 326 326
319 320 322 322 319 318 319 319 321 323 323 324 324 325 326 328 328 324 323 323 323 322 322 326 330 328 327 327 329 330 331 331 330 329 329 331 331 330 329 328 326 323 325 324 327 326 326 326 325
317 319 319 318 316 317 318 319 321 322 323 323 325 326 327 328 328 326 324 323 324 326 328 328 329 328 327 328 329 330 331 332 331 329 329 332 331 330 329 328 325 322 326 327 326 325 324 324 325
317 317 318 318 317 318 319 320 320 321 323 323 323 324 326 327 329 328 325 323 325 327 329 330 330 327 327 327 328 328 329 329 330 330 331 330 328 327 328 327 326 325 326 326 325 324 323 324 325
317 317 317 317 318 318 321 323 322 322 323 323 323 325 326 327 327 327 325 325 326 327 329 330 330 327 327 328 329 330 332 332 330 330 329 329 327 328 328 327 326 327 326 325 324 323 323 324 325
316 316 317 318 320 322 321 323 322 322 322 323 324 323 327 327 324 328 326 325 326 327 329 330 329 328 329 328 329 331 332 330 329 328 329 329 328 327 326 326 326 325 325 324 324 323 324 325 325
317 318 320 320 321 321 320 322 321 322 322 321 324 326 325 326 327 326 325 326 327 328 329 330 330 331 329 329 329 331 331 330 328 328 328 328 328 325 326 325 325 324 324 324 324 325 325 326 325
319 320 319 319 320 320 320 321 322 321 320 321 324 327 326 328 327 326 328 328 328 329 329 329 330 331 331 331 330 331 330 325 327 327 327 327 327 326 326 324 323 324 324 324 325 325 326 327 327
320 320 320 323 323 321 322 321 321 324 323 322 324 326 325 329 327 327 328 329 328 329 329 329 331 331 330 331 332 329 328 327 326 326 326 325 326 325 324 322 324 325 324 326 325 327 327 326 325
318 320 319 318 322 323 325 325 325 325 325 326 326 325 328 330 328 327 327 328 328 330 330 330 330 330 330 331 331 329 329 325 327 325 325 325 325 324 324 323 326 326 326 326 325 327 329 328 328
314 316 318 318 318 318 318 322 326 328 327 326 327 327 329 329 328 327 327 328 328 329 330 330 329 328 329 329 331 331 330 327 326 325 325 325 324 324 324 324 325 326 328 328 329 329 330 330 330
314 317 317 318 318 319 318 319 326 329 329 329 328 329 329 330 328 327 327 327 327 329 329 329 328 328 327 328 330 330 331 328 326 326 325 324 324 323 324 325 326 327 328 329 329 329 328 328 330
315 316 318 317 320 318 324 323 326 328 328 326 326 327 329 329 328 327 327 327 327 327 329 328 328 328 326 329 328 330 331 329 327 327 326 325 324 324 325 326 327 327 328 329 329 329 327 327 328
Wind_Speed
15 16 12 3 2 2 3 4 4 7 2 2 3 4 6 2 4 9 3 13 12 34 36 35 33 29 26 23 20 18 16 14 13 12 10 9 9 9 10 9 8 8 7 6 6 6 6 6 7
20 17 2 2 3 3 3 5 7 2 7 13 7 8 7 9 3 6 1 20 19 35 34 35 35 30 27 25 22 20 18 16 16 15 14 13 12 12 13 12 11 10 10 10 10 8 8 8 8
16 5 2 2 3 6 3 7 3 7 11 4 3 3 2 4 4 3 5 26 21 34 31 35 35 32 28 26 24 22 19 19 18 17 16 16 16 16 16 16 15 14 13 13 13 12 11 10 9
6 4 3 4 12 8 6 4 7 11 1 4 2 7 4 4 1 3 10 27 22 32 27 30 33 33 29 27 26 23 21 20 19 18 17 17 18 19 18 18 18 17 16 16 15 14 15 15 12
2 2 4 5 11 6 10 16 9 9 6 3 2 3 5 3 8 6 14 26 25 30 29 27 33 34 30 28 26 24 22 20 18 17 17 18 19 18 18 18 18 18 20 18 17 16 17 18 16
3 1 4 10 13 10 9 13 7 8 6 3 3 3 6 4 8 11 17 26 23 28 32 27 32 34 31 27 26 24 21 18 17 15 15 15 16 15 15 15 17 17 17 18 17 17 19 19 18
4 4 6 10 15 12 9 7 6 6 4 2 1 4 3 6 11 10 17 23 25 26 30 27 27 33 31 27 25 23 20 17 15 13 12 15 15 13 14 15 15 15 16 16 16 18 20 20 18
2 3 5 7 9 10 2 3 3 1 6 2 2 3 7 6 3 12 15 21 17 21 25 27 27 27 26 23 26 23 20 17 16 13 13 12 10 11 12 14 14 15 14 17 19 19 19 20 21
4 7 13 16 12 10 1 4 2 4 9 5 4 10 12 6 4 8 13 17 17 19 24 27 27 27 24 21 21 22 19 18 17 14 12 10 8 8 9 12 12 10 10 11 14 17 18 20 19
8 12 20 16 15 13 10 5 10 8 17 19 16 15 12 8 8 12 19 23 25 25 27 31 32 28 27 21 19 17 15 14 14 13 11 9 9 9 10 10 11 10 10 11 12 13 13 15 16
10 20 26 21 18 10 18 17 13 16 24 22 19 20 22 15 13 17 23 28 36 30 27 30 31 29 26 19 18 16 15 14 13 14 14 12 12 11 11 11 9 9 11 11 10 11 11 10 14
15 23 24 25 17 13 20 17 18 21 28 22 23 19 20 19 15 17 23 30 31 31 34 32 31 29 26 20 20 17 15 14 12 12 15 14 14 14 14 13 11 10 10 10 9 9 9 10 11
22 22 20 22 21 20 18 20 20 28 27 22 22 19 19 18 17 23 29 29 30 29 29 26 31 33 32 28 21 19 17 13 12 12 15 16 16 16 16 15 15 13 12 11 10 9 8 8 9
11 24 23 18 16 21 21 26 19 25 22 20 19 20 20 18 19 19 21 30 28 34 28 32 34 32 31 28 25 22 17 14 13 14 15 17 17 16 16 16 17 18 16 14 10 8 8 8 8
14 15 13 14 15 14 9 26 20 29 19 21 24 19 19 18 20 18 25 27 35 36 25 28 31 33 34 30 25 21 16 14 14 16 17 18 19 19 19 18 17 19 20 14 13 10 8 7 8
10 11 18 12 19 12 13 32 20 18 13 17 18 16 16 19 18 21 24 28 25 24 27 29 27 31 32 30 26 19 15 15 16 17 18 19 20 20 18 17 15 16 16 14 11 11 9 9 9
11 14 15 13 11 5 16 21 17 10 8 15 18 18 18 18 18 25 22 23 21 26 24 27 28 31 32 29 22 18 15 16 16 17 15 17 17 16 17 16 15 11 11 11 11 11 10 9 9
15 15 14 16 11 17 23 26 19 18 14 18 19 17 18 20 23 23 18 17 19 23 25 29 28 33 33 26 20 16 15 16 16 16 14 13 11 11 11 13 11 10 9 8 9 11 9 9 9
18 20 25 22 15 15 19 19 14 16 18 20 20 19 20 20 20 14 11 13 16 21 27 30 31 33 31 22 15 10 11 12 13 12 11 10 9 7 8 8 10 10 9 9 9 8 9 10 8
22 23 21 14 12 10 17 20 16 17 22 22 19 20 21 19 18 8 5 11 20 24 26 32 34 34 28 20 14 8 8 8 8 9 8 6 6 5 7 8 7 9 7 8 9 10 10 10 9
25 25 23 19 15 14 17 22 19 20 11 16 17 19 20 18 16 6 6 10 13 21 26 30 30 30 25 18 15 9 7 6 5 3 2 2 4 4 5 7 6 5 6 7 8 10 11 11 9
25 24 20 18 11 14 3 14 17 19 22 22 21 17 17 16 11 5 8 10 14 17 23 27 27 26 23 19 12 8 6 3 1 1 1 1 1 2 4 7 7 5 5 6 6 9 9 9 9
16 11 15 16 17 16 17 11 12 14 22 24 20 19 15 9 6 6 10 13 17 22 25 24 24 23 21 17 11 8 5 2 0 0 1 2 3 4 5 6 6 5 5 4 7 9 9 9 9
12 7 8 6 7 12 15 11 14 14 20 18 14 13 4 6 2 8 12 18 21 24 23 22 22 19 18 15 11 8 4 3 1 0 1 2 4 6 5 7 6 5 4 6 8 8 9 7 6
20 12 5 6 8 9 16 13 18 14 19 18 19 11 5 1 8 12 15 16 24 25 23 22 21 18 15 13 10 7 4 3 1 1 1 3 7 7 7 8 6 5 5 6 7 8 8 7 6
24 20 8 7 5 10 5 9 7 16 19 22 17 12 2 6 9 12 15 17 25 25 23 22 20 17 14 12 9 7 4 3 2 2 4 6 9 9 9 8 5 5 4 4 4 7 6 4 3
17 18 15 6 2 7 3 6 11 18 14 11 10 6 6 9 11 13 16 21 24 24 23 22 19 15 14 11 10 7 5 3 3 5 6 8 11 9 8 6 5 4 3 2 4 4 5 5 5
19 17 10 9 8 8 8 8 8 14 8 8 8 7 9 11 13 15 16 19 22 22 21 20 18 15 12 10 9 7 6 5 6 7 8 9 9 7 6 4 4 3 3 3 4 5 4 4 4
11 16 7 10 7 6 4 5 11 16 12 8 3 8 10 12 13 15 16 20 21 20 19 18 15 12 11 9 8 8 7 8 7 7 7 8 7 7 4 3 4 3 5 4 4 4 4 4 4
21 20 20 9 9 10 3 6 2 8 7 6 2 8 13 12 14 15 16 19 19 20 19 17 14 12 10 10 7 7 7 8 8 7 7 7 8 7 5 4 5 5 6 6 5 6 6 7 7
Wind_Direction
152 147 149 124 217 267 238 236 248 260 257 177 148 206 260 288 199 296 319 191 169 174 181 187 193 194 196 200 202 207 213 216 220 225 231 240 249 250 256 258 255 262 268 266 270 267 256 250 257
152 143 161 127 230 228 212 229 222 264 312 311 225 220 231 273 255 277 229 175 178 182 184 187 196 199 200 203 206 211 217 223 224 228 230 234 248 254 248 247 248 255 267 271 266 258 261 256 250
149 148 214 221 200 227 237 207 239 314 305 250 275 240 229 227 213 252 207 176 179 183 188 194 199 200 202 206 209 214 219 225 229 231 233 234 246 255 251 243 244 248 251 258 262 260 260 255 249
164 174 118 239 233 240 238 231 286 314 354 147 248 279 275 253 248 226 192 177 177 184 191 198 201 202 205 209 212 216 222 226 231 236 238 238 244 248 248 246 246 247 251 253 256 264 268 262 248
139 180 228 247 251 255 245 263 276 283 298 281 203 272 260 238 237 247 192 182 182 188 193 198 203 205 208 212 215 219 223 227 231 237 236 241 252 254 256 255 251 252 253 253 252 258 263 266 268
149 221 232 248 253 265 261 255 251 248 241 300 196 254 258 251 237 215 193 191 192 193 197 199 204 208 211 214 217 222 225 227 233 240 243 246 255 257 261 261 261 263 258 255 257 253 258 263 266
219 186 245 271 277 280 255 243 207 201 245 305 248 241 260 275 251 212 198 194 196 196 197 200 201 208 215 217 217 221 223 225 231 238 242 244 251 258 263 265 265 265 264 263 259 257 256 259 260
185 223 241 242 270 272 321 240 120 184 290 339 218 247 305 320 276 207 205 203 205 198 198 199 200 204 208 212 218 217 216 221 228 232 238 240 246 265 279 273 274 266 264 262 261 260 259 260 258
140 228 240 236 235 254 301 272 24 315 282 267 227 287 301 299 252 190 204 210 210 207 204 200 202 203 204 206 211 214 214 219 226 227 231 232 246 262 274 270 264 270 269 265 261 258 259 256 257
197 225 233 236 240 256 283 303 313 296 294 281 282 279 267 275 234 229 214 213 212 209 208 206 206 204 206 204 202 202 205 209 212 216 219 230 245 253 269 263 266 268 265 269 269 263 273 255 247
207 231 232 253 248 265 284 281 292 291 283 284 293 294 299 284 252 246 236 218 215 214 208 209 209 209 206 200 197 199 204 209 217 225 228 236 247 247 257 255 265 261 268 268 274 278 276 270 242
235 231 236 247 255 261 263 289 284 281 271 282 287 288 281 283 266 237 231 227 223 215 217 209 208 208 207 202 200 205 206 213 223 227 237 239 247 247 249 254 257 259 258 259 265 272 271 267 249
229 242 233 245 261 260 270 264 266 279 283 287 278 277 268 273 262 247 237 239 225 226 220 211 206 207 207 205 201 205 211 221 229 235 240 243 245 245 252 253 251 250 248 252 261 263 267 262 245
237 238 243 243 250 260 269 270 268 265 269 286 276 274 278 270 266 266 244 239 225 228 225 216 211 205 202 200 203 209 216 230 230 238 245 248 245 247 253 252 250 254 254 248 246 247 260 254 240
240 255 238 236 235 242 285 271 248 262 278 269 274 277 278 276 274 256 249 237 227 229 224 216 207 205 201 201 202 205 219 223 233 244 251 253 253 253 251 252 253 256 247 249 238 241 248 250 237
223 230 243 229 233 244 212 266 264 270 273 274 275 279 276 277 278 271 258 241 238 228 214 214 205 197 197 197 197 205 208 223 241 253 260 263 259 253 250 248 250 257 240 239 240 232 242 239 230
215 238 228 243 210 201 197 264 261 266 282 283 280 281 279 279 275 266 262 252 232 222 208 205 199 189 188 187 194 200 211 231 248 261 266 266 260 250 244 247 252 244 233 238 241 232 229 233 231
221 226 236 243 229 223 245 253 272 285 288 275 278 283 279 276 271 280 265 248 216 209 203 199 187 180 175 178 186 196 219 241 253 259 267 264 256 246 243 246 240 230 226 224 228 227 223 227 228
249 247 246 252 239 238 257 274 280 287 287 280 281 286 282 278 280 283 260 210 185 185 182 177 166 169 167 167 169 192 223 246 248 257 269 260 254 254 239 232 233 224 219 224 225 238 228 229 216
228 241 242 251 256 269 278 278 286 283 276 279 280 282 278 282 283 272 209 194 182 176 173 164 163 165 167 169 170 180 213 237 250 268 278 259 263 253 236 233 215 210 216 212 218 222 225 223 206
224 233 239 245 266 270 281 280 276 276 273 275 277 273 274 269 276 258 190 186 190 172 166 156 156 163 164 166 172 188 220 248 264 275 305 275 262 257 230 200 188 194 201 223 221 217 212 200 198
230 225 251 251 257 263 317 288 275 286 285 281 281 273 266 262 251 212 163 168 179 164 155 150 157 159 163 167 169 181 203 232 244 317 342 127 113 146 189 180 181 193 201 202 198 194 196 207 200
235 228 225 237 248 273 260 265 280 283 281 275 275 267 264 285 269 186 163 158 156 155 151 151 153 157 164 171 171 178 195 190 212 25 134 137 123 134 143 164 174 172 183 189 182 189 200 205 205
197 208 198 229 253 254 262 248 276 265 259 274 267 261 278 341 92 137 142 148 148 151 149 148 151 158 163 169 177 185 185 154 84 58 166 166 154 147 155 140 146 148 156 180 187 195 201 212 220
195 182 213 230 220 247 237 238 248 263 254 260 266 279 336 107 134 147 149 148 148 151 150 152 156 157 165 173 181 184 170 149 61 68 135 143 150 163 148 139 138 136 147 167 173 186 191 209 226
192 190 173 207 228 264 147 220 256 247 263 244 250 274 266 150 146 150 151 147 151 153 154 158 159 158 170 175 179 176 161 146 91 94 116 129 150 150 135 135 130 135 149 171 167 168 165 171 199
184 205 208 264 267 280 197 268 280 246 245 237 238 229 185 158 149 148 152 153 154 157 162 160 159 164 169 172 172 166 164 156 134 117 138 141 145 142 135 141 138 162 174 179 150 127 148 190 209
205 186 186 206 228 245 256 285 255 298 272 206 193 195 166 149 146 154 160 156 159 163 163 160 163 167 168 171 174 170 173 167 143 133 152 155 150 147 142 150 157 153 148 134 130 130 148 174 181
179 189 193 191 214 209 285 259 230 246 267 265 315 144 153 151 155 160 161 160 159 161 165 162 164 161 162 171 174 175 173 172 154 145 154 157 150 149 149 160 171 163 131 123 109 102 135 155 156
197 191 183 185 190 227 329 265 268 251 283 291 223 136 137 156 157 162 163 158 161 166 165 164 161 167 165 168 173 178 169 169 162 158 160 157 148 147 158 159 156 152 129 119 110 95 111 138 136